This demonstration page uses our WeatherBlox Daily Observations layout. Learn more.

Left ArrowRight Arrow

Hourly Observations for November 30, 2022

Temp ( °F °C ) Dew Point ( °F °C ) Humidity (%) Winds ( mph kmh ) Pressure ( in mb ) Visibility ( mi km ) Precip ( " mm )
12:38 am 00:38 Cloudy 56 13.3 53 11.7 90 90 S 7 11 29.69 1005 10 16 0.01 0.25
12:53 am 00:53 Cloudy with Light Rain 56 13.3 53 11.7 90 90 VRB 6 9 29.67 1005 8 13 0.01 0.25
1:02 am 01:02 Cloudy with Light Rain 56 13.3 54 12.2 93 93 S 6 9 29.68 1005 10 16 0.01 0.13
1:34 am 01:34 Cloudy 56 13.3 53 11.7 90 90 VRB 6 9 29.66 1004 10 16 0.01 0.13
1:43 am 01:43 Cloudy 56 13.3 53 11.7 90 90 VRB 6 9 29.66 1004 10 16 0.01 0.13
1:53 am 01:53 Cloudy 56 13.3 53 11.7 90 90 S 7 11 29.65 1004 10 16 0.01 0.13
2:53 am 02:53 Cloudy with Light Rain 57 13.9 54 12.2 89 89 VRB 6 9 29.65 1004 10 16 0.01 0.13
3:17 am 03:17 Cloudy with Rain 57 13.9 55 12.8 93 93 VRB 7 11 29.66 1004 4 6 0.03 0.76
3:53 am 03:53 Cloudy with Light Rain 57 13.9 55 12.8 93 93 SW 6 9 29.65 1004 6 10 0.07 1.78
4:17 am 04:17 Cloudy with Light Rain 57 13.9 55 12.8 93 93 W 10 17 29.67 1005 8 13 0.02 0.51
4:33 am 04:33 Cloudy with Light Rain 55 12.8 51 10.6 86 86 W 10 17 29.67 1005 10 16 0.03 0.76
4:42 am 04:42 Cloudy with Light Rain 54 12.2 51 10.6 90 90 W 10 17 29.67 1005 10 16 0.03 0.76
4:53 am 04:53 Cloudy with Light Rain 53 11.7 48 8.9 83 83 W 12 19 29.68 1005 10 16 0.03 0.76
5:06 am 05:06 Cloudy with Light Rain 51 10.6 47 8.3 86 86 WNW 25 41 29.73 1007 10 16 0.01 0.13
5:53 am 05:53 Cloudy 42 5.6 38 3.3 85 85 WNW 22 35 29.79 1009 10 16 0.01 0.13
6:17 am 06:17 Cloudy 39 3.9 32 0 76 76 WNW 21 33 29.85 1011 10 16 0.01 0.13
6:53 am 06:53 Mostly Cloudy 35 1.7 28 -2.2 75 75 WNW 15 24 29.88 1012 10 16 0.01 0.13
7:53 am 07:53 Mostly Cloudy 35 1.7 25 -3.9 66 66 WNW 16 26 29.93 1014 10 16 0.00 0.00
9:02 am 09:02 Partly Cloudy 34 1.1 23 -5 64 64 W 14 22 30.04 1017 10 16 0.00 0.00
9:53 am 09:53 Mostly Sunny 34 1.1 22 -5.6 61 61 W 16 26 30.03 1017 10 16 0.00 0.00
10:53 am 10:53 Sunny 35 1.7 21 -6.1 56 56 W 12 19 30.08 1019 10 16 0.00 0.00
11:53 am 11:53 Sunny 37 2.8 22 -5.6 54 54 W 14 22 30.11 1020 10 16 0.00 0.00
12:53 pm 12:53 Sunny 38 3.3 21 -6.1 50 50 W 13 20 30.11 1020 10 16 0.00 0.00
1:53 pm 13:53 Sunny 39 3.9 20 -6.7 46 46 W 14 22 30.13 1020 10 16 0.00 0.00
2:53 pm 14:53 Sunny 38 3.3 17 -8.3 42 42 W 13 20 30.14 1021 10 16 0.00 0.00
3:53 pm 15:53 Sunny 38 3.3 16 -8.9 40 40 W 10 17 30.16 1022 10 16 0.00 0.00
4:53 pm 16:53 Sunny 36 2.2 17 -8.3 46 46 W 12 19 30.20 1023 10 16 0.00 0.00
5:53 pm 17:53 Clear 34 1.1 18 -7.8 51 51 W 8 13 30.24 1024 10 16 0.00 0.00
6:53 pm 18:53 Clear 33 0.6 18 -7.8 53 53 W 8 13 30.27 1025 10 16 0.00 0.00
7:53 pm 19:53 Clear 32 0 18 -7.8 56 56 W 7 11 30.30 1026 10 16 0.00 0.00
8:53 pm 20:53 Clear 31 -0.6 19 -7.2 61 61 W 13 20 30.33 1027 10 16 0.00 0.00
9:53 pm 21:53 Clear 30 -1.1 18 -7.8 60 60 W 16 26 30.35 1028 10 16 0.00 0.00
10:53 pm 22:53 Clear 29 -1.7 17 -8.3 61 61 W 9 15 30.36 1028 10 16 0.00 0.00
11:53 pm 23:53 Clear 28 -2.2 16 -8.9 60 60 W 8 13 30.38 1029 10 16 0.00 0.00

Powered by AerisWeather